Doha, Qatar

10:14 PM +03 on June 23, 2017 (GMT +0300)
Doha International

Weather History for OTBD - October, 2011

Change the Weather History Date:

Monday, October 17, 2011

  Actual Average Record
Temperature  
Mean Temperature 90 °F -  
Max Temperature 101 °F 89 °F 103 °F (2014)
Min Temperature 79 °F 70 °F 75 °F (1996)
Cooling Degree Days 25    
Growing Degree Days 40 (Base 50)    
Moisture  
Dew Point 68 °F    
Average Humidity 54    
Maximum Humidity 84    
Minimum Humidity 15    
Precipitation  
Precipitation 0.00 in 0.00 in - ()
Sea Level Pressure  
Sea Level Pressure 29.86 in    
Wind  
Wind Speed 4 mph ()    
Max Wind Speed 10 mph    
Max Gust Speed -    
Visibility 4.5 miles    
Events      
Averages and records for this station are not official NWS values.
T = Trace of Precipitation, MM = Missing Value Source: Averaged Metar Reports

Daily Weather History Graph

Daily Weather History Graph

Search for Another Location

Airport or City:

Trip Planner

Search our weather history database for the weather conditions in past years. The results will help you decide how hot, cold, wet, or windy it might be!

Date:

Astronomy

Oct. 17, 2011 Rise Set
Actual Time 5:32 AM +03 5:05 PM +03
Civil Twilight 5:09 AM +03 5:28 PM +03
Nautical Twilight 4:42 AM +03 5:54 PM +03
Astronomical Twilight 4:16 AM +03 6:21 PM +03
Moon 8:48 PM +03 (10/17) 9:55 AM +03 (10/17)
Length of Visible Light 12h 18m
Length of Day
11h 32m
Waning Gibbous, 77% of the Moon is Illuminated
Oct 17
Waning Gibbous
Oct 20
Last Quarter
Oct 26
New
Nov 2
First Quarter
Nov 10
Full

Hourly Weather History & Observations

Time (+03) Temp. Heat Index Dew Point Humidity Pressure Visibility Wind Dir Wind Speed Gust Speed Precip Events Conditions
12:00 AM 84.2 °F 90.9 °F 73.4 °F 70% 29.86 in 3.7 mi NNW 3.5 mph - N/A   Unknown
12:30 AM 84.2 °F 92.3 °F 75.2 °F 74% 29.86 in 3.7 mi Variable 1.2 mph - N/A   Haze
1:00 AM - - - N/A% 29.83 in - North - - N/A   Unknown
1:30 AM 82.4 °F 90.9 °F 77.0 °F 84% 29.83 in 3.7 mi Variable 2.3 mph - N/A   Haze
2:00 AM 82.4 °F 89.5 °F 75.2 °F 79% 29.83 in 3.7 mi Variable 1.2 mph - N/A   Unknown
2:30 AM 82.4 °F 88.2 °F 73.4 °F 74% 29.83 in 3.7 mi Variable 2.3 mph - N/A   Haze
3:00 AM 82 °F - 75 °F 74% 29.84 in 4 mi 2.3 mph - -   Haze
3:00 AM 82.4 °F 89.5 °F 75.2 °F 79% 29.83 in 3.7 mi Variable 2.3 mph - N/A   Unknown
3:30 AM 82.4 °F 89.5 °F 75.2 °F 79% 29.83 in 3.7 mi Variable 1.2 mph - N/A   Haze
4:00 AM 80.6 °F 85.4 °F 73.4 °F 79% 29.83 in 3.7 mi Variable 2.3 mph - N/A   Unknown
4:30 AM 80.6 °F 85.4 °F 73.4 °F 79% 29.86 in 3.7 mi Calm Calm - N/A   Unknown
5:00 AM 80.6 °F 84.6 °F 71.6 °F 74% 29.86 in 3.7 mi North 3.5 mph - N/A   Unknown
5:30 AM 80.6 °F 85.4 °F 73.4 °F 79% 29.86 in 3.7 mi Variable 1.2 mph - N/A   Unknown
6:00 AM 80.6 °F 85.4 °F 73.4 °F 79% 29.86 in 3.1 mi Variable 2.3 mph - N/A   Haze
6:30 AM 80.6 °F 85.4 °F 73.4 °F 79% 29.86 in 3.7 mi North - - N/A   Unknown
7:00 AM 82.4 °F 88.2 °F 73.4 °F 74% 29.89 in 3.7 mi Variable 2.3 mph - N/A   Unknown
7:30 AM 84.2 °F 90.9 °F 73.4 °F 70% 29.89 in 4.3 mi West 3.5 mph - N/A   Unknown
8:00 AM 87.8 °F 92.6 °F 69.8 °F 55% 29.89 in 4.3 mi NW 4.6 mph - N/A   Unknown
8:30 AM 89.6 °F 93.4 °F 68.0 °F 49% 29.92 in 4.3 mi North 3.5 mph - N/A   Unknown
9:00 AM 91 °F - 83 °F 72% 29.92 in 5 mi North 5.8 mph - -   Widespread Dust
9:00 AM 91.4 °F 93.2 °F 64.4 °F 41% 29.92 in 5.0 mi North 5.8 mph - N/A   Unknown
9:30 AM 91.4 °F 107.2 °F 78.8 °F 66% 29.92 in 5.0 mi North 6.9 mph - N/A   Unknown
10:00 AM 93.2 °F 94.9 °F 64.4 °F 38% 29.89 in 5.0 mi NW 5.8 mph - N/A   Unknown
10:30 AM 95.0 °F 97.0 °F 64.4 °F 36% 29.89 in 5.0 mi NNW 8.1 mph - N/A   Unknown
11:00 AM 96.8 °F 98.0 °F 62.6 °F 32% 29.86 in 5.0 mi NNW 8.1 mph - N/A   Unknown
11:30 AM 96.8 °F 99.0 °F 64.4 °F 34% 29.86 in 5.0 mi Variable 2.3 mph - N/A   Unknown
12:00 PM 98.6 °F 99.4 °F 60.8 °F 29% 29.86 in 5.0 mi NNE 5.8 mph - N/A   Unknown
12:30 PM 100.4 °F 99.7 °F 57.2 °F 24% 29.83 in 5.0 mi NNW 3.5 mph - N/A   Unknown
1:00 PM 100.4 °F 99.7 °F 57.2 °F 24% 29.83 in 5.6 mi North 8.1 mph - N/A   Unknown
1:30 PM 100.4 °F 101.3 °F 60.8 °F 27% 29.83 in 5.6 mi North 8.1 mph - N/A   Unknown
2:00 PM 100.4 °F 98.8 °F 55.4 °F 22% 29.83 in - NNE 5.8 mph - N/A   Clear
2:30 PM 100.4 °F 98.4 °F 53.6 °F 21% 29.83 in - NNE 8.1 mph - N/A   Clear
3:00 PM 99 °F - 55 °F 15% 29.83 in 6 mi North 9.2 mph - -   Widespread Dust
3:00 PM 98.6 °F 97.2 °F 55.4 °F 24% 29.83 in 5.6 mi North 9.2 mph - N/A   Unknown
3:30 PM 95.0 °F 95.2 °F 60.8 °F 32% 29.83 in 5.0 mi NE 10.4 mph - N/A   Unknown
4:00 PM 91.4 °F 102.5 °F 75.2 °F 59% 29.83 in 4.3 mi NE 9.2 mph - N/A   Unknown
4:30 PM 89.6 °F 102.2 °F 77.0 °F 66% 29.83 in 4.3 mi NNE 8.1 mph - N/A   Unknown
5:00 PM 89.6 °F 102.2 °F 77.0 °F 66% 29.86 in 4.3 mi NNE 9.2 mph - N/A   Unknown
5:30 PM 87.8 °F 102.5 °F 78.8 °F 75% 29.86 in 3.7 mi North 8.1 mph - N/A   Unknown
6:00 PM 87.8 °F 102.5 °F 78.8 °F 75% 29.86 in 4.3 mi North 8.1 mph - N/A   Unknown
6:30 PM 87.8 °F 99.7 °F 77.0 °F 70% 29.86 in 4.3 mi North 6.9 mph - N/A   Unknown
7:00 PM 87.8 °F 97.6 °F 75.2 °F 66% 29.86 in 5.0 mi North 6.9 mph - N/A   Unknown
7:30 PM 87.8 °F 95.6 °F 73.4 °F 62% 29.86 in 5.6 mi NNW 8.1 mph - N/A   Unknown
8:00 PM 87.8 °F 92.6 °F 69.8 °F 55% 29.89 in 5.6 mi NNW 8.1 mph - N/A   Unknown
8:30 PM 87.8 °F 88.5 °F 62.6 °F 43% 29.89 in 5.6 mi NNW 5.8 mph - N/A   Unknown
9:00 PM 88 °F - 56 °F 23% 29.90 in 6 mi North 5.8 mph - -   Widespread Dust
9:00 PM 93.2 °F 91.3 °F 55.4 °F 28% 29.89 in 5.6 mi North 5.8 mph - N/A   Unknown
9:30 PM 86.0 °F 85.4 °F 59.0 °F 40% 29.89 in - North 4.6 mph - N/A   Clear
10:00 PM 86.0 °F 85.4 °F 59.0 °F 40% 29.89 in - NNW 5.8 mph - N/A   Clear
10:30 PM 87.8 °F 87.6 °F 60.8 °F 40% 29.89 in - Variable 2.3 mph - N/A   Clear
11:00 PM 86.0 °F 86.6 °F 62.6 °F 45% 29.86 in - NNW 5.8 mph - N/A   Clear
11:30 PM 84.2 °F 87.3 °F 68.0 °F 58% 29.86 in - North 4.6 mph - N/A   Clear